User: anonymous
Location: SAPM � Hemmingford
(45.0500°N, 73.5833°W)
Time: 14:12:54
(UTC-04:00)
Language:

Cosmos 1674 Rocket - Orbit

View from above orbital plane
View from above orbital plane
View from above satellite
View from above satellite

Ground track
Ground track

The orbit data is extracted from the following two-line orbital elements,

1 15945U 85069B   14106.70591038  .00000458  00000-0  52871-4 0  6235
2 15945 082.5259 136.6634 0021360 138.3339 000.9542 14.83298531549404
Epoch (UTC): 16 April 2014 16:56:30
Eccentricity: 0.0021360
inclination: 82.5259°
perigee height: 604 km
apogee height: 634 km
right ascension of ascending node: 136.6634°
argument of perigee: 138.3339°
revolutions per day: 14.83298531
mean anomaly at epoch: 0.9542°
orbit number at epoch: 54940

The dashed part of the orbit path shows where the satellite is in the earth's shadow,  

DLR